Retour au catalogue

CZ-6A DEB

ActifSSO
NORAD 54558·DEBRIS·🇨🇳 China

Lancé Nov 11, 2022 depuis Taiyuan Satellite Launch Center

Loading…

Prochains Passages (prochaines 24 heures)

TLE

FraisSource: Space-Track

Époque: Sep 14, 2026, 06:07 UTC

1 54558U 22151LJ  26257.25514436  .00000613  00000-0  30495-3 0  9994
2 54558  98.7908 270.4824 0056544  97.1206 263.6404 14.19814960198406

Suivez CZ-6A DEB en temps réel avec AllMySat

Download on the App Store